Commit Graph

302 Commits

Author SHA1 Message Date
Hafifie PKB 640e7291b9 disabled maklumat keuntungan and hapus ansuran dan fixed bug nokp more than 13 have special characters. 2024-03-06 22:17:04 +08:00
Hafifie PKB de32f6b13d pick certain commits 2024-03-06 22:04:19 +08:00
Amirah 71366bc6c1 update resit (tebus/ansuran) 2024-02-20 10:23:08 +08:00
amirhassan 9b11f6f21f Fix resit ps column pembiayaan baru take bakipjm instead of pinjaman 2024-01-31 12:40:05 +08:00
Amirah 8161616812 Merge cherry-pick combine laporan stokaudit aktif, tak aktif 2024-01-18 13:45:42 +08:00
Amirah c88cd79a19 laporan ringkasan ujrah 2024-01-15 13:30:50 +08:00
amirhassan f1b3fb5a8f Set figure tebus keseluruhan to transaction.duit_masuk at resit tebus lama 2024-01-15 13:23:52 +08:00
Nur Izzati Zulkifli 2b3c7ce664 tambah button dlm page khazanah untuk laporan notis peringatan 2024-01-15 09:00:00 +08:00
Amir 0010de66a7 fix resit ansuran, tebus tawarruq, tebus ujrah, ps 2024-01-10 09:19:16 +08:00
Amir 4851ce925e update sag: sag title, text name & nokp, align table arcc bottom, margin pembiayaan 2024-01-07 11:13:52 +08:00
Amir 2c85ff0d7e fix position kaki sag & initialize surat wakil to empty array 2024-01-03 12:35:45 +08:00
Amir 4ebeba9c16 custom font kaki bold 2024-01-03 12:16:14 +08:00
Server a43d8e2422 update kaki sag, font bold 2024-01-03 12:06:39 +08:00
root f0f21e9812 custom font sag 2024-01-03 11:52:16 +08:00
arrahn pkb a5dd60ed0d Merged in sag-ujrah-new-css (pull request #62)
Sag ujrah new css
2024-01-03 03:06:40 +00:00
Amirah 1a506ad2ba update condition cheking ps 2024-01-03 10:06:28 +08:00
Amir 6c69dd21f9 update no siri wakil on BOTH resit tebus 2024-01-03 09:25:23 +08:00
Amir d73a382a15 add new css & blade for sag ujrah template 2024-01-03 07:19:46 +08:00
Amirah 60a4feb121 update wakil page penilai 2024-01-02 12:57:25 +08:00
root b0ef63a349 update sag - width kaki, signature column 2024-01-02 07:39:58 +08:00
Hafifie PKB a0d71f7300 kuantiti number format 2023-12-31 18:37:51 +08:00
Amirah 0e8e68def8 update surat wakil 2023-12-28 11:18:18 +08:00
Amir 895ec3b039 Update T position on resit tebus ujrah 2023-12-27 14:05:13 +08:00
Amir c6aa30251c Update resit tebus ujrah 2023-12-27 13:55:47 +08:00
Amir c2f71d8e84 Enable window.close function on sag ujrah 2023-12-27 10:06:30 +08:00
Amir 591dd76e2c Update resit - logo, status sign, column title 2023-12-27 10:05:43 +08:00
Hafifie PKB 6082e0673c fix stokaudit for v2 2023-12-27 00:48:53 +08:00
Amir 901a96a926 fix sag - hide tel2 & sblum/pada, figure tempoh lanjutan 2023-12-26 15:50:19 +08:00
Amir Hassan Hamzan c492f35b33 Merged in ujrah_master (pull request #44)
Ujrah master
2023-12-26 07:14:06 +00:00
Amir a4b1f5c338 update new content for sag ujrah (MODEL 7) 2023-12-26 15:11:22 +08:00
Amirah 51c574442f function wakil khazanah dan penilai 2023-12-26 11:52:41 +08:00
Hafifie PKB 8d7f580f6a fix resit duitpelanggan 2023-12-26 11:36:05 +08:00
Hafifie PKB 766a3e0d0f fix duit pelanggan kat sag lama dan fix rebet keuntungan 2023-12-26 11:23:15 +08:00
Azfar Arsyad c80c6fc8d9 update laporan stokaudit 2023-12-20 13:35:38 +08:00
Amir e19b683c85 update resit tebus lama & ujrah on wakil section 2023-12-20 00:55:59 +08:00
Amir 68ce1f5c25 update resit dan sag 2023-12-19 15:00:04 +08:00
Amir 5afb24c588 enable window.close js function for sag ujrah 2023-12-12 09:22:47 +08:00
Amir 3c318d25f8 fix typo pembiyaan to pembiayaan for all blade related 2023-12-12 09:20:30 +08:00
Amir 5904f9809a finalize new sag format 2023-12-12 09:17:21 +08:00
Amir 615f90e7a9 add new template for sag ujrah 2023-12-10 14:10:56 +08:00
Azfar Arsyad 336d118026 add column onepercent & ujrah 2023-12-06 17:16:41 +08:00
Amirah 49857f25e9 recall code ansuran lama 2023-12-06 16:44:31 +08:00
Hafifie PKB cc48bf3565 fix resit tebus total rebate 2023-12-06 15:49:32 +08:00
Amirah aa0f99a6f0 naming laporan tebus 2023-12-06 13:00:39 +08:00
Amirah 7bc48b8d76 naming pinjaman -> pembiayaan 2023-12-06 12:15:59 +08:00
Amir 9c8d6e80b7 Fix sag ujrah -> remove pkb logo, replace PKB word with KoPKB, update table bayaran on second page 2023-12-06 06:59:40 +08:00
Amir 45daaa8feb Update resit ansuran ujrah following new format 2023-12-06 06:14:26 +08:00
Amir 9165d18031 Fix resit tebus ujrah following new format 2023-12-06 05:56:23 +08:00
Amir c1bf0d0dea Update resit tebus tawarruq following resit tebus ujrah format 2023-12-06 05:43:47 +08:00
Amir 9850cc5aa6 Fix resit PS align arrahn logo and text salinan pelanggan,pejabat 2023-12-06 05:39:04 +08:00